Time,TemperatureF,DewpointF,PressureIn,WindDirection,WindDirectionDegrees,WindSpeedMPH,WindSpeedGustMPH,Humidity,HourlyPrecipIn,Conditions,Clouds,dailyrainin,SolarRadiationWatts/m^2,SoftwareType,DateUTC
2013-06-22 00:00:00,59.0,57.3,30.11,SE,126,0.0,0.0,94,0.00,CLR,FEW,0.00,0.0,WeatherDisplay:10.37,2013-06-22 04:00:00,
2013-06-22 00:01:00,59.0,57.3,30.11,SE,126,0.0,0.0,94,0.00,CLR,FEW,0.00,0.0,WeatherDisplay:10.37,2013-06-22 04:01:00,
2013-06-22 00:06:00,58.9,57.2,30.11,SE,127,0.0,0.0,94,0.00,CLR,FEW,0.00,0.0,WeatherDisplay:10.37,2013-06-22 04:06:00,
2013-06-22 00:11:00,58.9,57.2,30.11,SE,127,0.0,0.0,94,0.00,CLR,FEW,0.00,0.0,WeatherDisplay:10.37,2013-06-22 04:11:00,
2013-06-22 00:16:00,58.6,56.9,30.11,SE,126,0.0,0.0,94,0.00,CLR,FEW,0.00,0.0,WeatherDisplay:10.37,2013-06-22 04:16:00,
2013-06-22 00:21:00,58.5,56.8,30.11,SE,127,0.0,0.0,94,0.00,CLR,FEW,0.00,0.0,WeatherDisplay:10.37,2013-06-22 04:21:00,
2013-06-22 00:26:00,58.2,56.5,30.11,SE,126,0.0,0.0,94,0.00,CLR,FEW,0.00,0.0,WeatherDisplay:10.37,2013-06-22 04:26:00,
2013-06-22 00:31:00,58.0,56.3,30.11,SE,127,0.0,0.0,94,0.00,CLR,FEW,0.00,0.0,WeatherDisplay:10.37,2013-06-22 04:31:00,
2013-06-22 00:36:00,58.0,56.3,30.11,SE,127,0.0,0.0,94,0.00,CLR,FEW,0.00,0.0,WeatherDisplay:10.37,2013-06-22 04:36:00,
2013-06-22 00:41:00,58.1,56.4,30.11,SE,127,0.0,0.0,94,0.00,CLR,FEW,0.00,0.0,WeatherDisplay:10.37,2013-06-22 04:41:00,
2013-06-22 00:46:00,58.1,56.4,30.11,SE,126,0.0,0.0,94,0.00,CLR,FEW,0.00,0.0,WeatherDisplay:10.37,2013-06-22 04:46:00,
2013-06-22 00:51:00,58.0,56.3,30.11,SE,127,0.0,0.0,94,0.00,CLR,FEW,0.00,0.0,WeatherDisplay:10.37,2013-06-22 04:51:00,
2013-06-22 00:56:00,57.9,56.2,30.11,SE,126,0.0,0.0,94,0.00,CLR,FEW,0.00,0.0,WeatherDisplay:10.37,2013-06-22 04:56:00,
2013-06-22 01:01:00,57.6,55.9,30.11,SE,126,0.0,0.0,94,0.00,CLR,FEW,0.00,0.0,WeatherDisplay:10.37,2013-06-22 05:01:00,
2013-06-22 01:06:00,57.5,55.8,30.11,SE,126,0.0,0.0,94,0.00,CLR,FEW,0.00,0.0,WeatherDisplay:10.37,2013-06-22 05:06:00,
2013-06-22 01:11:00,57.4,55.7,30.11,SE,126,0.0,0.0,94,0.00,CLR,FEW,0.00,0.0,WeatherDisplay:10.37,2013-06-22 05:11:00,
2013-06-22 01:16:00,57.6,56.2,30.11,SE,127,0.0,0.0,95,0.00,CLR,FEW,0.00,0.0,WeatherDisplay:10.37,2013-06-22 05:16:00,
2013-06-22 01:21:00,57.5,56.1,30.11,SE,127,0.0,0.0,95,0.00,CLR,FEW,0.00,0.0,WeatherDisplay:10.37,2013-06-22 05:21:00,
2013-06-22 01:26:00,57.4,55.7,30.12,SE,127,0.0,0.0,94,0.00,CLR,FEW,0.00,0.0,WeatherDisplay:10.37,2013-06-22 05:26:00,
2013-06-22 01:31:00,57.2,55.8,30.12,SE,126,0.0,0.0,95,0.00,CLR,FEW,0.00,0.0,WeatherDisplay:10.37,2013-06-22 05:31:00,
2013-06-22 01:36:00,57.1,55.7,30.12,SE,127,0.0,0.0,95,0.00,CLR,FEW,0.00,0.0,WeatherDisplay:10.37,2013-06-22 05:36:00,
2013-06-22 01:41:00,57.1,55.7,30.12,SE,126,0.0,0.0,95,0.00,CLR,FEW,0.00,0.0,WeatherDisplay:10.37,2013-06-22 05:41:00,
2013-06-22 01:46:00,57.1,55.7,30.12,SE,127,0.0,0.0,95,0.00,CLR,FEW,0.00,0.0,WeatherDisplay:10.37,2013-06-22 05:46:00,
2013-06-22 01:51:00,57.3,55.9,30.12,SE,127,0.0,0.0,95,0.00,CLR,FEW,0.00,0.0,WeatherDisplay:10.37,2013-06-22 05:51:00,
2013-06-22 01:56:00,57.5,56.1,30.12,SE,127,0.0,0.0,95,0.00,CLR,FEW,0.00,0.0,WeatherDisplay:10.37,2013-06-22 05:56:00,
2013-06-22 02:01:00,57.4,56.0,30.12,SE,127,0.0,0.0,95,0.00,CLR,FEW,0.00,0.0,WeatherDisplay:10.37,2013-06-22 06:01:00,
2013-06-22 02:06:00,57.3,55.9,30.12,SE,127,0.0,0.0,95,0.00,CLR,FEW,0.00,0.0,WeatherDisplay:10.37,2013-06-22 06:06:00,
2013-06-22 02:11:00,57.2,55.8,30.12,SE,126,0.0,0.0,95,0.00,CLR,FEW,0.00,0.0,WeatherDisplay:10.37,2013-06-22 06:11:00,
2013-06-22 02:16:00,57.2,55.8,30.12,SE,127,0.0,0.0,95,0.00,CLR,FEW,0.00,0.0,WeatherDisplay:10.37,2013-06-22 06:16:00,
2013-06-22 02:21:00,57.2,55.8,30.12,SE,126,0.0,0.0,95,0.00,CLR,FEW,0.00,0.0,WeatherDisplay:10.37,2013-06-22 06:21:00,
2013-06-22 02:26:00,57.3,55.9,30.11,SE,127,0.0,0.0,95,0.00,CLR,FEW,0.00,0.0,WeatherDisplay:10.37,2013-06-22 06:26:00,
2013-06-22 02:31:00,57.3,55.9,30.11,SE,126,0.0,0.0,95,0.00,CLR,FEW,0.00,0.0,WeatherDisplay:10.37,2013-06-22 06:31:00,
2013-06-22 02:36:00,57.3,55.9,30.11,SE,127,0.0,0.0,95,0.00,CLR,FEW,0.00,0.0,WeatherDisplay:10.37,2013-06-22 06:36:00,
2013-06-22 02:42:00,57.2,55.8,30.10,SE,126,0.0,0.0,95,0.00,CLR,FEW,0.00,0.0,WeatherDisplay:10.37,2013-06-22 06:42:00,
2013-06-22 02:47:00,57.1,55.7,30.10,SE,126,0.0,0.0,95,0.00,CLR,FEW,0.00,0.0,WeatherDisplay:10.37,2013-06-22 06:47:00,
2013-06-22 02:52:00,57.2,55.8,30.10,SE,126,0.0,0.0,95,0.00,CLR,FEW,0.00,0.0,WeatherDisplay:10.37,2013-06-22 06:52:00,
2013-06-22 02:57:00,57.3,55.9,30.11,SE,126,0.0,0.0,95,0.00,CLR,FEW,0.00,0.0,WeatherDisplay:10.37,2013-06-22 06:57:00,
2013-06-22 03:02:00,57.4,56.0,30.11,SE,127,0.0,0.0,95,0.00,CLR,FEW,0.00,0.0,WeatherDisplay:10.37,2013-06-22 07:02:00,
2013-06-22 03:07:00,57.5,56.1,30.11,SE,127,0.0,0.0,95,0.00,CLR,FEW,0.00,0.0,WeatherDisplay:10.37,2013-06-22 07:07:00,
2013-06-22 03:12:00,57.5,56.1,30.11,SE,126,0.0,0.0,95,0.00,CLR,FEW,0.00,0.0,WeatherDisplay:10.37,2013-06-22 07:12:00,
2013-06-22 03:17:00,57.4,56.0,30.11,SE,127,0.0,0.0,95,0.00,CLR,FEW,0.00,0.0,WeatherDisplay:10.37,2013-06-22 07:17:00,
2013-06-22 03:22:00,57.3,55.9,30.11,SE,127,0.0,0.0,95,0.00,CLR,FEW,0.00,0.0,WeatherDisplay:10.37,2013-06-22 07:22:00,
2013-06-22 03:27:00,57.3,55.9,30.11,SE,126,0.0,0.0,95,0.00,CLR,FEW,0.00,0.0,WeatherDisplay:10.37,2013-06-22 07:27:00,
2013-06-22 03:32:00,57.2,55.8,30.11,SE,127,0.0,0.0,95,0.00,CLR,FEW,0.00,0.0,WeatherDisplay:10.37,2013-06-22 07:32:00,
2013-06-22 03:37:00,57.2,55.8,30.11,SE,126,0.0,0.0,95,0.00,CLR,FEW,0.00,0.0,WeatherDisplay:10.37,2013-06-22 07:37:00,
2013-06-22 03:42:00,57.2,55.8,30.10,SE,127,0.0,0.0,95,0.00,CLR,FEW,0.00,0.0,WeatherDisplay:10.37,2013-06-22 07:42:00,
2013-06-22 03:47:00,57.2,55.8,30.10,SE,126,0.0,0.0,95,0.00,CLR,FEW,0.00,0.0,WeatherDisplay:10.37,2013-06-22 07:47:00,
2013-06-22 03:52:00,57.1,55.7,30.10,SE,127,0.0,0.0,95,0.00,CLR,FEW,0.00,0.0,WeatherDisplay:10.37,2013-06-22 07:52:00,
2013-06-22 03:57:00,57.1,55.7,30.10,SE,127,0.0,0.0,95,0.00,CLR,FEW,0.00,0.0,WeatherDisplay:10.37,2013-06-22 07:57:00,
2013-06-22 04:02:00,57.1,56.0,30.10,SE,127,0.0,0.0,96,0.00,CLR,FEW,0.00,0.0,WeatherDisplay:10.37,2013-06-22 08:02:00,
2013-06-22 04:07:00,57.1,56.0,30.10,SE,126,0.0,0.0,96,0.00,CLR,FEW,0.00,0.0,WeatherDisplay:10.37,2013-06-22 08:07:00,
2013-06-22 04:12:00,57.1,55.7,30.10,SE,126,0.0,0.0,95,0.00,CLR,FEW,0.00,0.0,WeatherDisplay:10.37,2013-06-22 08:12:00,
2013-06-22 04:17:00,57.0,55.6,30.10,SE,127,0.0,0.0,95,0.00,CLR,FEW,0.00,0.0,WeatherDisplay:10.37,2013-06-22 08:17:00,
2013-06-22 04:22:00,57.0,55.6,30.10,SE,127,0.0,0.0,95,0.00,CLR,FEW,0.00,0.0,WeatherDisplay:10.37,2013-06-22 08:22:00,
2013-06-22 04:27:00,56.9,55.5,30.10,SE,127,0.0,0.0,95,0.00,CLR,FEW,0.00,0.0,WeatherDisplay:10.37,2013-06-22 08:27:00,
2013-06-22 04:32:00,56.9,55.5,30.10,SE,127,0.0,0.0,95,0.00,CLR,FEW,0.00,0.0,WeatherDisplay:10.37,2013-06-22 08:32:00,
2013-06-22 04:37:00,57.0,55.9,30.10,SE,127,0.0,0.0,96,0.00,CLR,FEW,0.00,0.0,WeatherDisplay:10.37,2013-06-22 08:37:00,
2013-06-22 04:42:00,57.0,55.9,30.10,SE,126,0.0,0.0,96,0.00,CLR,FEW,0.00,0.0,WeatherDisplay:10.37,2013-06-22 08:42:00,
2013-06-22 04:47:00,57.0,55.9,30.10,SE,126,0.0,0.0,96,0.00,CLR,FEW,0.00,0.0,WeatherDisplay:10.37,2013-06-22 08:47:00,
2013-06-22 04:52:00,57.0,55.9,30.10,SE,127,0.0,0.0,96,0.00,CLR,FEW,0.00,0.0,WeatherDisplay:10.37,2013-06-22 08:52:00,
2013-06-22 04:57:00,57.0,55.9,30.10,SE,127,0.0,0.0,96,0.00,CLR,FEW,0.00,0.0,WeatherDisplay:10.37,2013-06-22 08:57:00,
2013-06-22 05:02:00,57.1,56.0,30.10,SE,126,0.0,0.0,96,0.00,CLR,FEW,0.00,0.0,WeatherDisplay:10.37,2013-06-22 09:02:00,
2013-06-22 05:07:00,57.1,56.0,30.10,SE,127,0.0,0.0,96,0.00,BKN,FEW,0.00,5.0,WeatherDisplay:10.37,2013-06-22 09:07:00,
2013-06-22 05:12:00,57.2,56.1,30.11,SE,126,0.0,0.0,96,0.00,BKN,FEW,0.00,7.0,WeatherDisplay:10.37,2013-06-22 09:12:00,
2013-06-22 05:17:00,57.1,56.0,30.11,SE,126,0.0,0.0,96,0.00,BKN,FEW,0.00,11.0,WeatherDisplay:10.37,2013-06-22 09:17:00,
2013-06-22 05:22:00,57.2,56.1,30.11,SE,127,0.0,0.0,96,0.00,BKN,FEW,0.00,12.0,WeatherDisplay:10.37,2013-06-22 09:22:00,
2013-06-22 05:27:00,57.3,56.2,30.12,SE,126,0.0,0.0,96,0.00,BKN,FEW,0.00,16.0,WeatherDisplay:10.37,2013-06-22 09:27:00,
2013-06-22 05:32:00,57.3,56.2,30.12,SE,127,0.0,0.0,96,0.00,BKN,FEW,0.00,7.0,WeatherDisplay:10.37,2013-06-22 09:32:00,
2013-06-22 05:37:00,57.3,56.2,30.12,SE,127,0.0,0.0,96,0.00,BKN,FEW,0.00,19.0,WeatherDisplay:10.37,2013-06-22 09:37:00,
2013-06-22 05:42:00,57.4,56.3,30.12,SE,126,0.0,0.0,96,0.00,BKN,FEW,0.00,21.0,WeatherDisplay:10.37,2013-06-22 09:42:00,
2013-06-22 05:47:00,57.3,56.2,30.12,SE,126,0.0,0.0,96,0.00,BKN,FEW,0.00,25.0,WeatherDisplay:10.37,2013-06-22 09:47:00,
2013-06-22 05:52:00,57.3,56.2,30.12,SE,127,0.0,0.0,96,0.00,BKN,FEW,0.00,26.0,WeatherDisplay:10.37,2013-06-22 09:52:00,
2013-06-22 05:57:00,57.2,56.1,30.11,SE,126,0.0,0.0,96,0.00,BKN,FEW,0.00,33.0,WeatherDisplay:10.37,2013-06-22 09:57:00,
2013-06-22 06:02:00,57.2,56.1,30.11,SE,127,0.0,0.0,96,0.00,BKN,FEW,0.00,39.0,WeatherDisplay:10.37,2013-06-22 10:02:00,
2013-06-22 06:07:00,57.2,56.1,30.11,SE,126,0.0,0.0,96,0.00,BKN,FEW,0.00,53.0,WeatherDisplay:10.37,2013-06-22 10:07:00,
2013-06-22 06:12:00,57.4,56.3,30.11,SE,127,0.0,0.0,96,0.00,BKN,FEW,0.00,63.0,WeatherDisplay:10.37,2013-06-22 10:12:00,
2013-06-22 06:17:00,57.6,56.5,30.11,SE,126,0.0,0.0,96,0.00,BKN,FEW,0.00,70.0,WeatherDisplay:10.37,2013-06-22 10:17:00,
2013-06-22 06:22:00,57.8,56.7,30.11,SE,127,0.0,0.0,96,0.00,BKN,FEW,0.00,69.0,WeatherDisplay:10.37,2013-06-22 10:22:00,
2013-06-22 06:27:00,58.2,57.1,30.10,SE,126,0.0,0.0,96,0.00,BKN,FEW,0.00,65.0,WeatherDisplay:10.37,2013-06-22 10:27:00,
2013-06-22 06:32:00,58.6,57.5,30.10,SE,127,0.0,0.0,96,0.00,BKN,FEW,0.00,67.0,WeatherDisplay:10.37,2013-06-22 10:32:00,
2013-06-22 06:37:00,58.9,57.5,30.10,SE,126,0.0,0.0,95,0.00,BKN,FEW,0.00,74.0,WeatherDisplay:10.37,2013-06-22 10:37:00,
2013-06-22 06:42:00,59.0,57.9,30.11,SE,127,0.0,0.0,96,0.00,BKN,FEW,0.00,83.0,WeatherDisplay:10.37,2013-06-22 10:42:00,
2013-06-22 06:47:00,59.0,57.6,30.11,SE,127,0.0,0.0,95,0.00,BKN,FEW,0.00,102.0,WeatherDisplay:10.37,2013-06-22 10:47:00,
2013-06-22 06:52:00,59.5,58.1,30.11,SE,127,0.0,0.0,95,0.00,BKN,FEW,0.00,111.0,WeatherDisplay:10.37,2013-06-22 10:52:00,
2013-06-22 06:57:00,59.9,58.2,30.11,SE,126,0.0,0.0,94,0.00,BKN,FEW,0.00,125.0,WeatherDisplay:10.37,2013-06-22 10:57:00,
2013-06-22 07:02:00,60.1,58.4,30.11,SE,127,0.0,0.0,94,0.00,SCT,FEW,0.00,149.0,WeatherDisplay:10.37,2013-06-22 11:02:00,
2013-06-22 07:07:00,60.3,58.3,30.11,SE,127,0.0,0.0,93,0.00,SCT,FEW,0.00,158.0,WeatherDisplay:10.37,2013-06-22 11:07:00,
2013-06-22 07:12:00,60.6,58.3,30.10,SE,127,0.0,0.0,92,0.00,SCT,FEW,0.00,156.0,WeatherDisplay:10.37,2013-06-22 11:12:00,
2013-06-22 07:17:00,61.0,58.7,30.10,SE,126,0.0,0.0,92,0.00,BKN,FEW,0.00,162.0,WeatherDisplay:10.37,2013-06-22 11:17:00,
2013-06-22 07:22:00,61.2,58.9,30.10,SE,127,0.0,0.0,92,0.00,SCT,FEW,0.00,192.0,WeatherDisplay:10.37,2013-06-22 11:22:00,
2013-06-22 07:27:00,61.6,59.3,30.10,SE,126,0.0,0.0,92,0.00,SCT,FEW,0.00,186.0,WeatherDisplay:10.37,2013-06-22 11:27:00,
2013-06-22 07:32:00,62.0,59.0,30.10,SE,127,0.0,0.0,90,0.00,SCT,FEW,0.00,202.0,WeatherDisplay:10.37,2013-06-22 11:32:00,
2013-06-22 07:37:00,62.3,59.0,30.10,SE,127,0.0,0.0,89,0.00,BKN,FEW,0.00,195.0,WeatherDisplay:10.37,2013-06-22 11:37:00,
2013-06-22 07:42:00,62.5,59.2,30.10,SE,127,0.0,0.0,89,0.00,BKN,FEW,0.00,195.0,WeatherDisplay:10.37,2013-06-22 11:42:00,
2013-06-22 07:47:00,62.8,59.2,30.10,SE,127,0.0,0.0,88,0.00,BKN,FEW,0.00,199.0,WeatherDisplay:10.37,2013-06-22 11:47:00,
2013-06-22 07:52:00,63.0,59.1,30.10,SE,126,0.0,0.0,87,0.00,BKN,FEW,0.00,199.0,WeatherDisplay:10.37,2013-06-22 11:52:00,
2013-06-22 07:57:00,63.2,59.6,30.09,SE,127,0.0,0.0,88,0.00,BKN,FEW,0.00,220.0,WeatherDisplay:10.37,2013-06-22 11:57:00,
2013-06-22 08:02:00,63.2,59.6,30.09,SE,126,0.0,0.0,88,0.00,SCT,FEW,0.00,276.0,WeatherDisplay:10.37,2013-06-22 12:02:00,
2013-06-22 08:07:00,63.4,59.5,30.09,SE,127,0.0,0.0,87,0.00,SCT,FEW,0.00,315.0,WeatherDisplay:10.37,2013-06-22 12:07:00,
2013-06-22 08:12:00,63.6,60.0,30.10,SE,127,0.0,0.0,88,0.00,SCT,FEW,0.00,339.0,WeatherDisplay:10.37,2013-06-22 12:12:00,
2013-06-22 08:17:00,64.0,60.1,30.10,SE,127,0.0,0.0,87,0.00,CLR,FEW,0.00,459.0,WeatherDisplay:10.37,2013-06-22 12:17:00,
2013-06-22 08:22:00,64.3,60.0,30.10,SE,126,0.0,0.0,86,0.00,SCT,FEW,0.00,355.0,WeatherDisplay:10.37,2013-06-22 12:22:00,
2013-06-22 08:27:00,64.5,59.9,30.09,SE,127,0.0,0.0,85,0.00,FEW,,0.00,403.0,WeatherDisplay:10.37,2013-06-22 12:27:00,
2013-06-22 08:32:00,65.0,60.0,30.09,SE,126,0.0,0.0,84,0.00,SCT,FEW,0.00,323.0,WeatherDisplay:10.37,2013-06-22 12:32:00,
2013-06-22 08:37:00,65.6,60.3,30.08,SE,126,0.0,0.0,83,0.00,FEW,,0.00,464.0,WeatherDisplay:10.37,2013-06-22 12:37:00,
2013-06-22 08:42:00,65.8,60.5,30.08,SE,126,0.0,0.0,83,0.00,SCT,FEW,0.00,434.0,WeatherDisplay:10.37,2013-06-22 12:42:00,
2013-06-22 08:47:00,66.3,60.3,30.08,SE,127,0.0,0.0,81,0.00,BKN,FEW,0.00,346.0,WeatherDisplay:10.37,2013-06-22 12:47:00,
2013-06-22 08:52:00,66.9,60.9,30.09,SE,127,0.0,0.0,81,0.00,FEW,,0.00,485.0,WeatherDisplay:10.37,2013-06-22 12:52:00,
2013-06-22 08:57:00,67.3,61.3,30.09,SE,126,0.0,0.0,81,0.00,CLR,FEW,0.00,563.0,WeatherDisplay:10.37,2013-06-22 12:57:00,
2013-06-22 09:03:00,67.5,61.5,30.09,SE,127,0.0,0.0,81,0.00,BKN,FEW,0.00,302.0,WeatherDisplay:10.37,2013-06-22 13:03:00,
2013-06-22 09:08:00,67.6,61.2,30.09,SE,126,0.0,0.0,80,0.00,SCT,FEW,0.00,457.0,WeatherDisplay:10.37,2013-06-22 13:08:00,
2013-06-22 09:13:00,68.0,61.6,30.09,SE,127,0.0,0.0,80,0.00,BKN,FEW,0.00,304.0,WeatherDisplay:10.37,2013-06-22 13:13:00,
2013-06-22 09:18:00,68.2,61.1,30.09,SE,126,0.0,0.0,78,0.00,SCT,FEW,0.00,445.0,WeatherDisplay:10.37,2013-06-22 13:18:00,
2013-06-22 09:23:00,68.5,62.4,30.08,SE,127,0.0,0.0,81,0.00,SCT,FEW,0.00,406.0,WeatherDisplay:10.37,2013-06-22 13:23:00,
2013-06-22 09:28:00,69.3,62.1,30.08,SE,127,0.0,0.0,78,0.00,SCT,FEW,0.00,515.0,WeatherDisplay:10.37,2013-06-22 13:28:00,
2013-06-22 09:33:00,69.7,62.5,30.08,SE,127,0.0,0.0,78,0.00,FEW,,0.00,615.0,WeatherDisplay:10.37,2013-06-22 13:33:00,
2013-06-22 09:38:00,70.1,62.2,30.09,SE,127,0.0,0.0,76,0.00,FEW,,0.00,677.0,WeatherDisplay:10.37,2013-06-22 13:38:00,
2013-06-22 09:43:00,70.2,61.9,30.09,SE,127,0.0,0.0,75,0.00,CLR,FEW,0.00,693.0,WeatherDisplay:10.37,2013-06-22 13:43:00,
2013-06-22 09:48:00,70.5,61.8,30.09,SE,126,0.0,0.0,74,0.00,FEW,,0.00,666.0,WeatherDisplay:10.37,2013-06-22 13:48:00,
2013-06-22 09:53:00,70.7,62.0,30.08,SE,126,0.0,0.0,74,0.00,CLR,FEW,0.00,756.0,WeatherDisplay:10.37,2013-06-22 13:53:00,
2013-06-22 09:58:00,70.7,62.0,30.08,SE,127,0.0,0.0,74,0.00,BKN,FEW,0.00,422.0,WeatherDisplay:10.37,2013-06-22 13:58:00,
2013-06-22 10:03:00,71.3,62.6,30.08,SE,127,0.0,0.0,74,0.00,FEW,,0.00,652.0,WeatherDisplay:10.37,2013-06-22 14:03:00,
2013-06-22 10:08:00,71.7,62.6,30.08,SE,127,0.0,0.0,73,0.00,SCT,FEW,0.00,497.0,WeatherDisplay:10.37,2013-06-22 14:08:00,
2013-06-22 10:13:00,71.9,62.0,30.08,SE,127,0.0,0.0,71,0.00,SCT,FEW,0.00,543.0,WeatherDisplay:10.37,2013-06-22 14:13:00,
2013-06-22 10:18:00,72.2,62.3,30.08,SE,127,0.0,0.0,71,0.00,SCT,FEW,0.00,473.0,WeatherDisplay:10.37,2013-06-22 14:18:00,
2013-06-22 10:23:00,72.2,61.9,30.09,SE,126,0.0,0.0,70,0.00,BKN,FEW,0.00,427.0,WeatherDisplay:10.37,2013-06-22 14:23:00,
2013-06-22 10:28:00,72.4,61.7,30.09,SE,127,0.0,0.0,69,0.00,BKN,FEW,0.00,369.0,WeatherDisplay:10.37,2013-06-22 14:28:00,
2013-06-22 10:33:00,72.5,62.6,30.09,SE,126,0.0,0.0,71,0.00,BKN,FEW,0.00,439.0,WeatherDisplay:10.37,2013-06-22 14:33:00,
2013-06-22 10:38:00,73.0,62.2,30.09,SE,127,0.0,0.0,69,0.00,BKN,FEW,0.00,462.0,WeatherDisplay:10.37,2013-06-22 14:38:00,
2013-06-22 10:43:00,73.4,63.0,30.09,SE,126,0.0,0.0,70,0.00,SCT,FEW,0.00,489.0,WeatherDisplay:10.37,2013-06-22 14:43:00,
2013-06-22 10:48:00,73.8,62.6,30.09,SE,127,0.0,0.0,68,0.00,SCT,FEW,0.00,501.0,WeatherDisplay:10.37,2013-06-22 14:48:00,
2013-06-22 10:53:00,73.8,62.2,30.09,SE,127,0.0,0.0,67,0.00,BKN,FEW,0.00,424.0,WeatherDisplay:10.37,2013-06-22 14:53:00,
2013-06-22 10:58:00,74.2,63.0,30.09,SE,126,0.0,0.0,68,0.00,BKN,FEW,0.00,499.0,WeatherDisplay:10.37,2013-06-22 14:58:00,
2013-06-22 11:03:00,74.6,62.5,30.09,SE,127,0.0,0.0,66,0.00,SCT,FEW,0.00,527.0,WeatherDisplay:10.37,2013-06-22 15:03:00,
2013-06-22 11:08:00,74.8,62.7,30.08,SE,127,0.0,0.0,66,0.00,SCT,FEW,0.00,608.0,WeatherDisplay:10.37,2013-06-22 15:08:00,
2013-06-22 11:13:00,75.0,63.3,30.08,SE,126,0.0,0.0,67,0.00,SCT,FEW,0.00,545.0,WeatherDisplay:10.37,2013-06-22 15:13:00,
2013-06-22 11:18:00,75.0,63.3,30.08,SE,127,0.0,0.0,67,0.00,SCT,FEW,0.00,670.0,WeatherDisplay:10.37,2013-06-22 15:18:00,
2013-06-22 11:23:00,75.2,62.6,30.09,East,83,0.0,0.0,65,0.00,SCT,FEW,0.00,707.0,WeatherDisplay:10.37,2013-06-22 15:23:00,
2013-06-22 11:28:00,75.4,61.9,30.09,East,80,0.0,0.0,63,0.00,SCT,FEW,0.00,865.0,WeatherDisplay:10.37,2013-06-22 15:28:00,
2013-06-22 11:33:00,75.7,61.8,30.09,East,80,0.0,0.0,62,0.00,SCT,FEW,0.00,594.0,WeatherDisplay:10.37,2013-06-22 15:33:00,
2013-06-22 11:38:00,76.2,62.2,30.09,East,80,0.0,0.0,62,0.00,FEW,,0.00,824.0,WeatherDisplay:10.37,2013-06-22 15:38:00,
2013-06-22 11:43:00,76.5,61.6,30.09,East,80,0.0,0.0,60,0.00,CLR,FEW,0.00,1056.0,WeatherDisplay:10.37,2013-06-22 15:43:00,
2013-06-22 11:48:00,76.6,60.7,30.09,East,80,0.0,0.0,58,0.00,SCT,FEW,0.00,654.0,WeatherDisplay:10.37,2013-06-22 15:48:00,
2013-06-22 11:53:00,76.9,61.5,30.08,ENE,78,0.0,0.0,59,0.00,SCT,FEW,0.00,751.0,WeatherDisplay:10.37,2013-06-22 15:53:00,
2013-06-22 11:58:00,77.5,62.0,30.08,ENE,67,0.0,0.0,59,0.00,CLR,FEW,0.00,1013.0,WeatherDisplay:10.37,2013-06-22 15:58:00,
2013-06-22 12:03:00,77.6,63.1,30.08,ESE,106,0.0,0.0,61,0.00,CLR,FEW,0.00,990.0,WeatherDisplay:10.37,2013-06-22 16:03:00,
2013-06-22 12:08:00,77.7,62.2,30.07,East,79,0.0,0.0,59,0.00,CLR,FEW,0.00,109.0,WeatherDisplay:10.37,2013-06-22 16:08:00,
2013-06-22 12:13:00,77.8,62.3,30.07,East,79,0.0,0.0,59,0.00,CLR,FEW,0.00,1032.0,WeatherDisplay:10.37,2013-06-22 16:13:00,
2013-06-22 12:18:00,78.0,62.0,30.07,East,79,0.0,0.0,58,0.00,CLR,FEW,0.00,1032.0,WeatherDisplay:10.37,2013-06-22 16:18:00,
2013-06-22 12:23:00,78.7,62.7,30.07,East,79,0.0,0.0,58,0.00,CLR,FEW,0.00,1037.0,WeatherDisplay:10.37,2013-06-22 16:23:00,
2013-06-22 12:28:00,79.1,63.5,30.07,East,79,0.0,0.0,59,0.00,CLR,FEW,0.00,1025.0,WeatherDisplay:10.37,2013-06-22 16:28:00,
2013-06-22 12:33:00,79.1,62.1,30.07,East,80,0.0,0.0,56,0.00,BKN,FEW,0.00,540.0,WeatherDisplay:10.37,2013-06-22 16:33:00,
2013-06-22 12:38:00,78.8,61.8,30.07,ENE,63,0.0,0.0,56,0.00,BKN,FEW,0.00,308.0,WeatherDisplay:10.37,2013-06-22 16:38:00,
2013-06-22 12:43:00,78.4,64.3,30.07,ENE,63,0.0,0.0,62,0.00,BKN,FEW,0.00,376.0,WeatherDisplay:10.37,2013-06-22 16:43:00,
2013-06-22 12:48:00,78.2,63.6,30.07,ENE,63,0.0,0.0,61,0.00,BKN,FEW,0.00,452.0,WeatherDisplay:10.37,2013-06-22 16:48:00,
2013-06-22 12:53:00,78.7,61.2,30.06,ENE,63,0.0,0.0,55,0.00,BKN,FEW,0.00,522.0,WeatherDisplay:10.37,2013-06-22 16:53:00,
2013-06-22 12:58:00,78.8,63.3,30.06,ENE,63,0.0,0.0,59,0.00,BKN,FEW,0.00,345.0,WeatherDisplay:10.37,2013-06-22 16:58:00,
2013-06-22 13:03:00,78.8,65.1,30.06,ENE,63,0.0,0.0,63,0.00,BKN,FEW,0.00,346.0,WeatherDisplay:10.37,2013-06-22 17:03:00,
2013-06-22 13:08:00,78.9,62.9,30.05,ENE,63,0.0,0.0,58,0.00,BKN,FEW,0.00,258.0,WeatherDisplay:10.37,2013-06-22 17:08:00,
2013-06-22 13:13:00,78.7,63.6,30.05,ENE,63,0.0,0.0,60,0.00,BKN,FEW,0.00,142.0,WeatherDisplay:10.37,2013-06-22 17:13:00,
2013-06-22 13:18:00,77.4,65.6,30.05,ENE,63,0.0,0.0,67,0.00,BKN,FEW,0.00,95.0,WeatherDisplay:10.37,2013-06-22 17:18:00,
2013-06-22 13:23:00,76.1,66.4,30.05,ENE,63,0.0,0.0,72,0.00,BKN,FEW,0.00,69.0,WeatherDisplay:10.37,2013-06-22 17:23:00,
2013-06-22 13:28:00,75.0,66.9,30.05,ENE,63,0.0,0.0,76,0.00,OVC,FEW,0.00,51.0,WeatherDisplay:10.37,2013-06-22 17:28:00,
2013-06-22 13:33:00,74.5,67.2,30.05,ENE,63,0.0,0.0,78,0.00,OVC,FEW,0.00,39.0,WeatherDisplay:10.37,2013-06-22 17:33:00,
2013-06-22 13:38:00,74.1,67.2,30.05,ENE,63,0.0,0.0,79,0.00,OVC,FEW,0.00,42.0,WeatherDisplay:10.37,2013-06-22 17:38:00,
2013-06-22 13:43:00,73.8,66.9,30.05,ENE,63,0.0,0.0,79,0.00,OVC,FEW,0.00,51.0,WeatherDisplay:10.37,2013-06-22 17:43:00,
2013-06-22 13:48:00,74.0,67.4,30.05,ENE,63,0.0,0.0,80,0.00,BKN,FEW,0.00,76.0,WeatherDisplay:10.37,2013-06-22 17:48:00,
2013-06-22 13:53:00,74.2,68.3,30.05,ENE,63,0.0,0.0,82,0.00,BKN,FEW,0.00,114.0,WeatherDisplay:10.37,2013-06-22 17:53:00,
2013-06-22 13:58:00,74.0,68.2,30.05,ENE,63,0.0,0.0,82,0.00,BKN,FEW,0.00,288.0,WeatherDisplay:10.37,2013-06-22 17:58:00,
2013-06-22 14:03:00,74.1,68.3,30.05,ENE,63,0.0,0.0,82,0.00,SCT,FEW,0.00,686.0,WeatherDisplay:10.37,2013-06-22 18:03:00,
2013-06-22 14:08:00,74.5,68.3,30.04,ENE,63,0.0,0.0,81,0.00,SCT,FEW,0.00,777.0,WeatherDisplay:10.37,2013-06-22 18:08:00,
2013-06-22 14:13:00,75.1,67.8,30.04,ENE,63,0.0,0.0,78,0.00,BKN,FEW,0.00,473.0,WeatherDisplay:10.37,2013-06-22 18:13:00,
2013-06-22 14:18:00,76.3,67.8,30.04,ENE,63,0.0,0.0,75,0.00,SCT,FEW,0.00,394.0,WeatherDisplay:10.37,2013-06-22 18:18:00,
2013-06-22 14:23:00,77.3,66.3,30.04,ENE,63,0.0,0.0,69,0.00,BKN,FEW,0.00,348.0,WeatherDisplay:10.37,2013-06-22 18:23:00,
2013-06-22 14:28:00,78.0,70.2,30.04,ENE,63,0.0,0.0,77,0.00,BKN,FEW,0.00,341.0,WeatherDisplay:10.37,2013-06-22 18:28:00,
2013-06-22 14:33:00,78.2,68.0,30.04,ENE,63,0.0,0.0,71,0.00,BKN,FEW,0.00,320.0,WeatherDisplay:10.37,2013-06-22 18:33:00,
2013-06-22 14:38:00,78.6,65.8,30.03,ENE,63,0.0,0.0,65,0.00,BKN,FEW,0.00,385.0,WeatherDisplay:10.37,2013-06-22 18:38:00,
2013-06-22 14:43:00,78.2,68.4,30.03,ENE,63,0.0,0.0,72,0.00,BKN,FEW,0.00,360.0,WeatherDisplay:10.37,2013-06-22 18:43:00,
2013-06-22 14:48:00,77.5,68.6,30.03,ENE,63,0.0,0.0,74,0.00,BKN,FEW,0.00,309.0,WeatherDisplay:10.37,2013-06-22 18:48:00,
2013-06-22 14:53:00,77.3,69.1,30.02,ENE,63,0.0,0.0,76,0.00,BKN,FEW,0.00,322.0,WeatherDisplay:10.37,2013-06-22 18:53:00,
2013-06-22 14:58:00,77.7,65.4,30.02,ENE,63,0.0,0.0,66,0.00,BKN,FEW,0.00,325.0,WeatherDisplay:10.37,2013-06-22 18:58:00,
2013-06-22 15:03:00,78.9,65.7,30.02,ENE,63,0.0,0.0,64,0.00,BKN,FEW,0.00,272.0,WeatherDisplay:10.37,2013-06-22 19:03:00,
2013-06-22 15:08:00,79.0,64.9,30.02,ENE,63,0.0,0.0,62,0.00,BKN,FEW,0.00,267.0,WeatherDisplay:10.37,2013-06-22 19:08:00,
2013-06-22 15:13:00,78.0,67.8,30.02,ENE,63,0.0,0.0,71,0.00,BKN,FEW,0.00,197.0,WeatherDisplay:10.37,2013-06-22 19:13:00,
2013-06-22 15:18:00,77.9,68.9,30.02,ENE,63,0.0,0.0,74,0.00,BKN,FEW,0.00,153.0,WeatherDisplay:10.37,2013-06-22 19:18:00,
2013-06-22 15:23:00,77.2,68.3,30.02,ENE,63,0.0,0.0,74,0.00,BKN,FEW,0.00,134.0,WeatherDisplay:10.37,2013-06-22 19:23:00,
2013-06-22 15:28:00,76.3,69.7,30.02,ENE,63,0.0,0.0,80,0.00,BKN,FEW,0.00,139.0,WeatherDisplay:10.37,2013-06-22 19:28:00,
2013-06-22 15:33:00,75.7,68.7,30.02,ENE,63,0.0,0.0,79,0.00,BKN,FEW,0.00,149.0,WeatherDisplay:10.37,2013-06-22 19:33:00,
2013-06-22 15:38:00,75.9,69.6,30.02,ENE,63,0.0,0.0,81,0.00,BKN,FEW,0.00,88.0,WeatherDisplay:10.37,2013-06-22 19:38:00,
2013-06-22 15:43:00,75.7,69.5,30.02,ENE,63,0.0,0.0,81,0.00,BKN,FEW,0.00,54.0,WeatherDisplay:10.37,2013-06-22 19:43:00,
2013-06-22 15:48:00,74.5,69.0,30.02,ENE,63,0.0,0.0,83,0.00,OVC,FEW,0.00,42.0,WeatherDisplay:10.37,2013-06-22 19:48:00,
2013-06-22 15:53:00,72.9,69.1,30.04,ENE,57,0.0,0.0,88,0.03,RA,FEW,0.03,40.0,WeatherDisplay:10.37,2013-06-22 19:53:00,
2013-06-22 15:58:00,71.5,68.4,30.04,WSW,238,2.3,6.9,90,0.04,RA,FEW,0.05,47.0,WeatherDisplay:10.37,2013-06-22 19:58:00,
2013-06-22 16:03:00,70.7,67.9,30.04,WSW,244,0.3,1.0,91,0.06,RA,FEW,0.07,77.0,WeatherDisplay:10.37,2013-06-22 20:03:00,
2013-06-22 16:08:00,69.9,67.5,30.05,SE,127,0.0,1.2,92,0.09,RA,FEW,0.09,65.0,WeatherDisplay:10.37,2013-06-22 20:08:00,
2013-06-22 16:13:00,69.6,67.8,30.05,SE,126,0.0,0.0,94,0.10,RA,FEW,0.10,54.0,WeatherDisplay:10.37,2013-06-22 20:13:00,
2013-06-22 16:18:00,69.4,67.6,30.05,SE,127,0.0,0.0,94,0.10,RA,FEW,0.10,69.0,WeatherDisplay:10.37,2013-06-22 20:18:00,
2013-06-22 16:24:00,69.7,67.9,30.03,SE,126,0.0,0.0,94,0.10,BKN,FEW,0.10,90.0,WeatherDisplay:10.37,2013-06-22 20:24:00,
2013-06-22 16:29:00,69.1,67.6,30.03,SE,127,0.0,0.0,95,0.10,BKN,FEW,0.10,113.0,WeatherDisplay:10.37,2013-06-22 20:29:00,
2013-06-22 16:34:00,69.1,67.9,30.03,SE,127,0.0,0.0,96,0.10,BKN,FEW,0.10,162.0,WeatherDisplay:10.37,2013-06-22 20:34:00,
2013-06-22 16:39:00,69.5,68.3,30.03,SE,127,0.0,0.0,96,0.10,BKN,FEW,0.10,137.0,WeatherDisplay:10.37,2013-06-22 20:39:00,
2013-06-22 16:44:00,69.7,68.5,30.03,SE,127,0.0,0.0,96,0.10,BKN,FEW,0.10,98.0,WeatherDisplay:10.37,2013-06-22 20:44:00,
2013-06-22 16:49:00,69.8,68.6,30.03,SE,126,0.0,0.0,96,0.10,BKN,FEW,0.10,72.0,WeatherDisplay:10.37,2013-06-22 20:49:00,
2013-06-22 16:54:00,70.1,68.9,30.03,SE,127,0.0,0.0,96,0.07,BKN,FEW,0.10,67.0,WeatherDisplay:10.37,2013-06-22 20:54:00,
2013-06-22 16:59:00,69.9,68.4,30.03,SE,126,0.0,0.0,95,0.05,BKN,FEW,0.10,63.0,WeatherDisplay:10.37,2013-06-22 20:59:00,
2013-06-22 17:04:00,70.2,68.7,30.03,SE,127,0.0,0.0,95,0.03,BKN,FEW,0.10,74.0,WeatherDisplay:10.37,2013-06-22 21:04:00,
2013-06-22 17:09:00,70.3,69.1,30.02,SE,126,0.0,0.0,96,0.01,BKN,FEW,0.10,105.0,WeatherDisplay:10.37,2013-06-22 21:09:00,
2013-06-22 17:14:00,70.4,69.2,30.02,SE,127,0.0,0.0,96,0.00,BKN,FEW,0.10,105.0,WeatherDisplay:10.37,2013-06-22 21:14:00,
2013-06-22 17:19:00,70.0,68.8,30.02,SE,126,0.0,0.0,96,0.00,BKN,FEW,0.10,97.0,WeatherDisplay:10.37,2013-06-22 21:19:00,
2013-06-22 17:24:00,69.9,68.7,30.02,SE,126,0.0,0.0,96,0.00,BKN,FEW,0.10,107.0,WeatherDisplay:10.37,2013-06-22 21:24:00,
2013-06-22 17:29:00,69.9,69.0,30.02,SE,126,0.0,0.0,97,0.00,BKN,FEW,0.10,93.0,WeatherDisplay:10.37,2013-06-22 21:29:00,
2013-06-22 17:34:00,69.7,68.8,30.02,SE,127,0.0,0.0,97,0.00,BKN,FEW,0.10,91.0,WeatherDisplay:10.37,2013-06-22 21:34:00,
2013-06-22 17:39:00,69.6,68.7,30.02,SE,127,0.0,0.0,97,0.00,BKN,FEW,0.10,97.0,WeatherDisplay:10.37,2013-06-22 21:39:00,
2013-06-22 17:44:00,69.8,68.9,30.02,SE,126,0.0,0.0,97,0.00,BKN,FEW,0.10,107.0,WeatherDisplay:10.37,2013-06-22 21:44:00,
2013-06-22 17:49:00,70.1,69.2,30.02,SE,127,0.0,0.0,97,0.00,BKN,FEW,0.10,104.0,WeatherDisplay:10.37,2013-06-22 21:49:00,
2013-06-22 17:54:00,70.1,69.2,30.02,SE,126,0.0,0.0,97,0.00,BKN,FEW,0.10,95.0,WeatherDisplay:10.37,2013-06-22 21:54:00,
2013-06-22 17:59:00,70.4,69.5,30.02,SE,126,0.0,0.0,97,0.00,BKN,FEW,0.10,95.0,WeatherDisplay:10.37,2013-06-22 21:59:00,
2013-06-22 18:04:00,70.6,69.7,30.02,SE,126,0.0,0.0,97,0.00,BKN,FEW,0.10,83.0,WeatherDisplay:10.37,2013-06-22 22:04:00,
2013-06-22 18:09:00,70.6,69.7,30.02,SE,126,0.0,0.0,97,0.00,BKN,FEW,0.10,63.0,WeatherDisplay:10.37,2013-06-22 22:09:00,
2013-06-22 18:14:00,70.4,69.5,30.02,SE,127,0.0,0.0,97,0.00,BKN,FEW,0.10,49.0,WeatherDisplay:10.37,2013-06-22 22:14:00,
2013-06-22 18:19:00,70.2,69.3,30.02,SE,127,0.0,0.0,97,0.00,BKN,FEW,0.10,46.0,WeatherDisplay:10.37,2013-06-22 22:19:00,
2013-06-22 18:24:00,70.1,69.2,30.02,SE,127,0.0,0.0,97,0.00,BKN,FEW,0.10,49.0,WeatherDisplay:10.37,2013-06-22 22:24:00,
2013-06-22 18:29:00,70.0,69.1,30.02,SE,126,0.0,0.0,97,0.00,BKN,FEW,0.10,46.0,WeatherDisplay:10.37,2013-06-22 22:29:00,
2013-06-22 18:34:00,70.0,69.1,30.02,SE,126,0.0,0.0,97,0.00,BKN,FEW,0.10,37.0,WeatherDisplay:10.37,2013-06-22 22:34:00,
2013-06-22 18:39:00,69.9,69.3,30.02,SE,126,0.0,0.0,98,0.00,BKN,FEW,0.10,30.0,WeatherDisplay:10.37,2013-06-22 22:39:00,
2013-06-22 18:44:00,69.9,69.3,30.02,SE,126,0.0,0.0,98,0.00,BKN,FEW,0.10,16.0,WeatherDisplay:10.37,2013-06-22 22:44:00,
2013-06-22 18:49:00,69.8,69.2,30.02,SE,127,0.0,0.0,98,0.01,RA,FEW,0.11,19.0,WeatherDisplay:10.37,2013-06-22 22:49:00,
2013-06-22 18:54:00,69.5,68.6,30.03,SE,126,0.0,0.0,97,0.02,RA,FEW,0.12,32.0,WeatherDisplay:10.37,2013-06-22 22:54:00,
2013-06-22 18:59:00,69.1,68.2,30.03,SE,126,0.0,0.0,97,0.02,RA,FEW,0.12,33.0,WeatherDisplay:10.37,2013-06-22 22:59:00,
2013-06-22 19:04:00,68.9,68.0,30.03,SE,126,0.0,0.0,97,0.02,BKN,FEW,0.12,35.0,WeatherDisplay:10.37,2013-06-22 23:04:00,
2013-06-22 19:09:00,68.8,68.2,30.04,SE,127,0.0,0.0,98,0.02,BKN,FEW,0.12,26.0,WeatherDisplay:10.37,2013-06-22 23:09:00,
2013-06-22 19:14:00,68.7,68.1,30.04,SE,126,0.0,0.0,98,0.02,BKN,FEW,0.12,26.0,WeatherDisplay:10.37,2013-06-22 23:14:00,
2013-06-22 19:19:00,68.6,68.0,30.04,SE,126,0.0,0.0,98,0.02,BKN,FEW,0.12,25.0,WeatherDisplay:10.37,2013-06-22 23:19:00,
2013-06-22 19:24:00,68.6,68.0,30.04,SE,126,0.0,0.0,98,0.02,BKN,FEW,0.12,19.0,WeatherDisplay:10.37,2013-06-22 23:24:00,
2013-06-22 19:29:00,68.5,67.9,30.04,SE,126,0.0,0.0,98,0.02,BKN,FEW,0.12,18.0,WeatherDisplay:10.37,2013-06-22 23:29:00,
2013-06-22 19:34:00,68.4,67.8,30.04,SE,126,0.0,0.0,98,0.03,RA,FEW,0.13,14.0,WeatherDisplay:10.37,2013-06-22 23:34:00,
2013-06-22 19:39:00,68.4,67.8,30.04,SE,126,0.0,0.0,98,0.03,RA,FEW,0.13,11.0,WeatherDisplay:10.37,2013-06-22 23:39:00,
2013-06-22 19:44:00,68.4,67.8,30.04,SE,126,0.0,0.0,98,0.03,BKN,FEW,0.13,9.0,WeatherDisplay:10.37,2013-06-22 23:44:00,
2013-06-22 19:49:00,68.3,67.7,30.04,SE,126,0.0,0.0,98,0.02,BKN,FEW,0.13,9.0,WeatherDisplay:10.37,2013-06-22 23:49:00,
2013-06-22 19:54:00,68.2,67.6,30.04,SE,127,0.0,0.0,98,0.01,BKN,FEW,0.13,7.0,WeatherDisplay:10.37,2013-06-22 23:54:00,
2013-06-22 19:59:00,68.1,67.5,30.04,SE,126,0.0,0.0,98,0.01,BKN,FEW,0.13,7.0,WeatherDisplay:10.37,2013-06-22 23:59:00,
2013-06-22 20:04:00,68.3,67.7,30.04,SE,127,0.0,0.0,98,0.01,BKN,FEW,0.13,7.0,WeatherDisplay:10.37,2013-06-23 00:04:00,
2013-06-22 20:09:00,68.2,67.6,30.04,SE,127,0.0,0.0,98,0.02,RA,FEW,0.14,7.0,WeatherDisplay:10.37,2013-06-23 00:09:00,
2013-06-22 20:14:00,68.0,67.4,30.04,SE,126,0.0,0.0,98,0.02,RA,FEW,0.14,5.0,WeatherDisplay:10.37,2013-06-23 00:14:00,
2013-06-22 20:19:00,67.9,67.3,30.04,SE,127,0.0,0.0,98,0.02,CLR,FEW,0.14,0.0,WeatherDisplay:10.37,2013-06-23 00:19:00,
2013-06-22 20:24:00,67.8,67.2,30.03,SE,127,0.0,0.0,98,0.02,CLR,FEW,0.14,0.0,WeatherDisplay:10.37,2013-06-23 00:24:00,
2013-06-22 20:29:00,67.7,67.1,30.03,SE,126,0.0,0.0,98,0.02,CLR,FEW,0.14,0.0,WeatherDisplay:10.37,2013-06-23 00:29:00,
2013-06-22 20:34:00,67.6,67.0,30.03,SE,126,0.0,0.0,98,0.02,RA,FEW,0.15,0.0,WeatherDisplay:10.37,2013-06-23 00:34:00,
2013-06-22 20:39:00,67.6,67.0,30.03,SE,126,0.0,0.0,98,0.02,RA,FEW,0.15,0.0,WeatherDisplay:10.37,2013-06-23 00:39:00,
2013-06-22 20:44:00,67.5,66.9,30.03,SE,126,0.0,0.0,98,0.02,,FEW,0.15,0.0,WeatherDisplay:10.37,2013-06-23 00:44:00,
2013-06-22 20:49:00,67.4,66.8,30.03,SE,127,0.0,0.0,98,0.02,CLR,FEW,0.15,0.0,WeatherDisplay:10.37,2013-06-23 00:49:00,
2013-06-22 20:54:00,67.4,66.8,30.03,SE,126,0.0,0.0,98,0.02,CLR,FEW,0.15,0.0,WeatherDisplay:10.37,2013-06-23 00:54:00,
2013-06-22 20:59:00,67.4,66.8,30.03,SE,126,0.0,0.0,98,0.02,CLR,FEW,0.15,0.0,WeatherDisplay:10.37,2013-06-23 00:59:00,
2013-06-22 21:04:00,67.3,66.7,30.03,SE,126,0.0,0.0,98,0.02,CLR,FEW,0.15,0.0,WeatherDisplay:10.37,2013-06-23 01:04:00,
2013-06-22 21:09:00,67.3,66.7,30.03,SE,126,0.0,0.0,98,0.01,CLR,FEW,0.15,0.0,WeatherDisplay:10.37,2013-06-23 01:09:00,
2013-06-22 21:14:00,67.2,66.6,30.03,SE,126,0.0,0.0,98,0.01,CLR,FEW,0.15,0.0,WeatherDisplay:10.37,2013-06-23 01:14:00,
2013-06-22 21:19:00,67.1,66.5,30.03,SE,127,0.0,0.0,98,0.01,CLR,FEW,0.15,0.0,WeatherDisplay:10.37,2013-06-23 01:19:00,
2013-06-22 21:24:00,67.1,66.5,30.04,SE,126,0.0,0.0,98,0.01,CLR,FEW,0.15,0.0,WeatherDisplay:10.37,2013-06-23 01:24:00,
2013-06-22 21:29:00,67.2,66.6,30.04,SE,126,0.0,0.0,98,0.01,CLR,FEW,0.15,0.0,WeatherDisplay:10.37,2013-06-23 01:29:00,
2013-06-22 21:34:00,67.1,66.5,30.04,SE,126,0.0,0.0,98,0.00,CLR,FEW,0.15,0.0,WeatherDisplay:10.37,2013-06-23 01:34:00,
2013-06-22 21:39:00,67.0,66.4,30.03,SE,126,0.0,0.0,98,0.00,CLR,FEW,0.15,0.0,WeatherDisplay:10.37,2013-06-23 01:39:00,
2013-06-22 21:44:00,66.9,66.3,30.03,SE,126,0.0,0.0,98,0.00,CLR,FEW,0.15,0.0,WeatherDisplay:10.37,2013-06-23 01:44:00,
2013-06-22 21:49:00,66.9,66.3,30.03,SE,126,0.0,0.0,98,0.00,CLR,FEW,0.15,0.0,WeatherDisplay:10.37,2013-06-23 01:49:00,
2013-06-22 21:54:00,66.9,66.3,30.03,SE,127,0.0,0.0,98,0.00,CLR,FEW,0.15,0.0,WeatherDisplay:10.37,2013-06-23 01:54:00,
2013-06-22 21:59:00,66.9,66.6,30.03,SE,126,0.0,0.0,99,0.00,CLR,FEW,0.15,0.0,WeatherDisplay:10.37,2013-06-23 01:59:00,
2013-06-22 22:04:00,66.8,66.5,30.03,SE,126,0.0,0.0,99,0.00,CLR,FEW,0.15,0.0,WeatherDisplay:10.37,2013-06-23 02:04:00,
2013-06-22 22:09:00,66.8,66.5,30.03,SE,127,0.0,0.0,99,0.00,CLR,FEW,0.15,0.0,WeatherDisplay:10.37,2013-06-23 02:09:00,
2013-06-22 22:14:00,66.8,66.5,30.03,SE,126,0.0,0.0,99,0.00,CLR,FEW,0.15,0.0,WeatherDisplay:10.37,2013-06-23 02:14:00,
2013-06-22 22:19:00,66.7,66.4,30.03,SE,127,0.0,0.0,99,0.00,CLR,FEW,0.15,0.0,WeatherDisplay:10.37,2013-06-23 02:19:00,
2013-06-22 22:24:00,66.7,66.4,30.03,SE,126,0.0,0.0,99,0.00,CLR,FEW,0.15,0.0,WeatherDisplay:10.37,2013-06-23 02:24:00,
2013-06-22 22:29:00,66.7,66.4,30.03,SE,126,0.0,0.0,99,0.00,CLR,FEW,0.15,0.0,WeatherDisplay:10.37,2013-06-23 02:29:00,
2013-06-22 22:34:00,66.7,66.4,30.03,SE,127,0.0,0.0,99,0.00,CLR,FEW,0.15,0.0,WeatherDisplay:10.37,2013-06-23 02:34:00,
2013-06-22 22:39:00,66.7,66.4,30.03,SE,127,0.0,0.0,99,0.00,CLR,FEW,0.15,0.0,WeatherDisplay:10.37,2013-06-23 02:39:00,
2013-06-22 22:44:00,66.7,66.4,30.03,SE,126,0.0,0.0,99,0.00,CLR,FEW,0.15,0.0,WeatherDisplay:10.37,2013-06-23 02:44:00,
2013-06-22 22:49:00,66.6,66.0,30.03,SE,126,0.0,0.0,98,0.00,CLR,FEW,0.15,0.0,WeatherDisplay:10.37,2013-06-23 02:49:00,
2013-06-22 22:54:00,66.6,66.3,30.03,SE,127,0.0,0.0,99,0.00,CLR,FEW,0.15,0.0,WeatherDisplay:10.37,2013-06-23 02:54:00,
2013-06-22 22:59:00,66.7,66.4,30.03,SE,126,0.0,0.0,99,0.00,CLR,FEW,0.15,0.0,WeatherDisplay:10.37,2013-06-23 02:59:00,
2013-06-22 23:04:00,66.6,66.3,30.03,SE,127,0.0,0.0,99,0.00,CLR,FEW,0.15,0.0,WeatherDisplay:10.37,2013-06-23 03:04:00,
2013-06-22 23:09:00,66.5,66.2,30.03,SE,126,0.0,0.0,99,0.00,CLR,FEW,0.15,0.0,WeatherDisplay:10.37,2013-06-23 03:09:00,
2013-06-22 23:14:00,66.5,66.2,30.03,SE,126,0.0,0.0,99,0.00,CLR,FEW,0.15,0.0,WeatherDisplay:10.37,2013-06-23 03:14:00,
2013-06-22 23:19:00,66.4,66.1,30.03,SE,126,0.0,0.0,99,0.00,CLR,FEW,0.15,0.0,WeatherDisplay:10.37,2013-06-23 03:19:00,
2013-06-22 23:24:00,66.3,66.0,30.02,SE,127,0.0,0.0,99,0.00,CLR,FEW,0.15,0.0,WeatherDisplay:10.37,2013-06-23 03:24:00,
2013-06-22 23:29:00,66.3,66.0,30.02,SE,126,0.0,0.0,99,0.00,CLR,FEW,0.15,0.0,WeatherDisplay:10.37,2013-06-23 03:29:00,
2013-06-22 23:34:00,66.2,65.9,30.02,SE,126,0.0,0.0,99,0.00,CLR,FEW,0.15,0.0,WeatherDisplay:10.37,2013-06-23 03:34:00,
2013-06-22 23:40:00,66.3,66.0,30.02,SE,126,0.0,0.0,99,0.00,CLR,FEW,0.15,0.0,WeatherDisplay:10.37,2013-06-23 03:40:00,
2013-06-22 23:45:00,66.4,66.1,30.02,SE,126,0.0,0.0,99,0.00,CLR,FEW,0.15,0.0,WeatherDisplay:10.37,2013-06-23 03:45:00,
2013-06-22 23:50:00,66.4,66.1,30.02,SE,126,0.0,0.0,99,0.00, +SHSN,FEW,0.15,0.0,WeatherDisplay:10.37,2013-06-23 03:50:00,
2013-06-22 23:55:00,66.3,66.0,30.02,SE,126,0.0,0.0,99,0.00, +SHSN,FEW,0.15,0.0,WeatherDisplay:10.37,2013-06-23 03:55:00,
2013-06-22 23:59:00,66.5,66.2,30.02,SE,126,0.0,0.0,99,0.00,CLR,FEW,0.15,0.0,WeatherDisplay:10.37,2013-06-23 03:59:00,